Regional Weather Roundup
Issued by NWS Albany, NY

Home | Current Version | Previous Version | Text Only | Print | Product List | Glossary On
Versions: 1 2 3 4 5 6 7 8 9 10 11 12 13 14 15 16 17 18 19 20 21 22 23 24 25 26 27 28 29 30 31 32 33 34 35 36 37 38 39 40 41 42 43 44 45 46 47 48 49 50
364
ASUS41 KALY 210810
RWRALY

NEW YORK STATE HOURLY WEATHER ROUNDUP
NATIONAL WEATHER SERVICE ALBANY NY
300 AM EST SAT JAN 21 2017

NOTE: "FAIR" INDICATES FEW OR NO CLOUDS BELOW 12,000 FEET WITH NO
SIGNIFICANT WEATHER AND/OR NO OBSTRUCTIONS TO VISIBILITY.

NYZ032-033-038>043-046>054-057>066-NYZ062>081-082-084-210900-
EAST


CITY           SKY/WX    TMP DP  RH WIND       PRES   REMARKS
ALBANY         CLOUDY    39  35  86 S10       29.88S WCI  32
GLENS FALLS    FOG       34  32  92 CALM      29.86F VSB 3/4
POUGHKEEPSIE   CLOUDY    38  37  97 SW3       29.88F FOG
MONTGOMERY     CLOUDY    39  38  96 SW5       29.88S FOG
WHITE PLAINS   FOG       40  39  97 CALM      29.88F VSB 1/2
ISLIP          CLOUDY    42  42 100 SW6       29.91F FOG
NEW YORK CITY  CLOUDY    45  40  82 SW8       29.91F FOG
CENTRAL PARK   CLOUDY    42  40  92 W7        29.92F FOG
$$

NYZ005>009-017-018-044>046-055-056-210900-
CENTRAL


CITY           SKY/WX    TMP DP  RH WIND       PRES   REMARKS
FULTON         CLOUDY    39  37  92 SE3       29.81R FOG
SYRACUSE       CLOUDY    38  38 100 CALM      29.81R
ROME           CLOUDY    37  36  96 E6        29.84S WCI  32
ELMIRA         CLOUDY    39  37  92 CALM      29.85R FOG
BINGHAMTON     CLOUDY    36  36 100 S6        29.84R FOG     WCI  31
MONTICELLO     CLOUDY    34  34 100 CALM      29.87F VSB 1/4
$$

NYZ026>034-041>043-087-210900-
NORTH


CITY           SKY/WX    TMP DP  RH WIND       PRES   REMARKS
WATERTOWN      LGT RAIN  43  43 100 S8        29.79S FOG
FORT DRUM      NOT AVBL
OGDENSBURG     CLOUDY    35  33  92 CALM      29.79F
MASSENA        CLOUDY    34  32  92 CALM      29.82S
SARANAC LAKE   CLOUDY    33  31  92 SW6       29.77R WCI  28
PLATTSBURGH    CLOUDY    33  30  88 S3        29.83S
$$

NYZ001>004-010>016-019>021-085-210900-
WEST


CITY           SKY/WX    TMP DP  RH WIND       PRES   REMARKS
NIAGARA FALLS  CLOUDY    43  39  86 SW9       29.81R
BUFFALO        CLOUDY    40  39  97 SW7       29.82S FOG
DUNKIRK        CLOUDY    44  44 100 SW7       29.83S FOG
JAMESTOWN      CLOUDY    46  45  93 S3        29.81S VSB 1/2
WELLSVILLE     CLOUDY    47  45  93 SW6       29.82S FOG
ROCHESTER      DRIZZLE   46  43  89 W13       29.81R
PENN YAN       CLOUDY    44  38  79 SW9       29.82R
$$

             KEY
       WCI = WIND CHILL INDEX
       VSB = VISIBILITY
       HX  = HEAT INDEX
$$




USA.gov is the U.S. government's official web portal to all federal, state and local government web resources and services.